* Astronomy

Members Login
Username 
 
Password 
    Remember Me  
Post Info TOPIC: Asteroid 2011 BY59


L

Posts: 131433
Date:
Asteroid 2011 BY59
Permalink  
 


Orbital elements:
2011 BY59 Earth MOID = 0.3194 AU
Epoch 2011 Feb. 8.0 TT = JDT 2455600.5 MPC
M 312.50304 (2000.0) P Q
n 0.59034854 Peri. 242.96075 -0.88557556 +0.32821662
a 1.4073336 Node 314.02118 -0.04323205 -0.76277371
e 0.1196287 Incl. 27.19888 -0.46247911 -0.55718050
P 1.67 H 22.5 G 0.15 U 6

MPEC 2011 - D19


__________________
Page 1 of 1  sorted by
 
Quick Reply

Please log in to post quick replies.



Create your own FREE Forum
Report Abuse
Powered by ActiveBoard